Погода в Долгом

Украина / Закарпатская область     48°22′03″N   23°17′13″E
темп.,
°C
ветер,
м/с
пор.,
м/с
влажн.,
%
обл.,
%
осадки,
мм/ч
давл.,
гПа
погр.,
м
11 апреля, вс
вс1100:00+5в22765 0.0 102314
03:00+4в22785 0.0 102417
06:00+4в2280100 0.0 102418
09:00+7вюв226850 0.0 1024144
12:00+13юв235228 0.0 1023703
15:00+16ю244490 0.0 10221670
18:00+15ююз3552100 0.0 10211006
21:00+10в226898 0.0 102210
12 апреля, пн
пн1200:00+9в2272100 0.0 102215
03:00+9вюв1169100 0.0 102317
06:00+9в2267100 0.0 102229
09:00+9юв2271100 0.0 102253
12:00+11вюв22649 0.0 1022189
15:00+17ююз23485 0.0 10201203
18:00+17ююз1252100 0.0 10181084
21:00+12св2270100 0.0 101911
13 апреля, вт
вт1300:00+10всв227494 0.0 101916
03:00+9всв227839 0.0 101817
06:00+8всв227983 0.0 101814
09:00+12в1266100 0.0 1017148
12:00+17ююв1251100 0.0 1016635
15:00+19зюз3348100 0.0 10141198
18:00+15з2373100 0.7 1013316
21:00+10з1292100 1.6 101474
14 апреля, ср
ср1400:00+9зюз1294100 1.1 1014117
03:00+8з0393100 2.1 1012135
06:00+7з1296100 3.8 1013180
09:00+6зсз1294100 6.4 1013247
12:00+6з1290100 0.8 1013376
15:00+6з1290100 0.8 1013412
18:00+5з1289100 0.6 1013369
21:00+4зюз1295100 2.1 1014540
15 апреля, чт
чт1500:00+2ю0199100 3.5 1015202
03:00+1ююз11100100 6.6 101693
06:00+1ююз11100100 1.7 1016101
09:00+1ю11100100 2.7 1017111
12:00+2ю11100100 0.8 1018128
15:00+2ююз12100100 1.1 1019194
18:00+2юз11100100 0.3 1019236
21:00+2юз11100100 1.2 1020225